Flag for Canada Weather past 2 weeks in Igloolik, Nunavut, Canada

Now
36 °F

Mostly cloudy.


Feels Like: 27 °F
Forecast: 40 / 46 °F
Wind: 12 mph from Southeast

Location: Hall Beach

Current Time: Jul 2, 2015 at 1:31:58 AM

Latest Report: Jul 2, 2015 at 1:03 AM


Visibility: 9 mi

Pressure: 29.83 "Hg

Humidity: 93%

Dew point: 34 °F

Location of IgloolikLocation

Historic Weather in Igloolik — Graph

°F

Igloolik temperature yesterday

Maximum temperature yesterday: 37 °F (at 12:55 AM)
Minimum temperature yesterday: 34 °F (at 5:00 AM)
Average temperature yesterday: 36 °F

Past Weeks' High & Low Weather Summary

 TemperatureHumidityPressure
High50 °F (Jun 28, 6:00 PM)100% (Jun 17, 3:00 AM)29.97 "Hg (Jun 17, 3:00 AM)
Low30 °F (Jun 17, 3:00 AM)67% (Jun 28, 7:00 PM)29.41 "Hg (Jun 21, 2:00 PM)
Average36 °F92%29.70 "Hg
* Reported Jun 17 1:00 AM — Jul 2 1:03 AM, Igloolik, Weather by CustomWeather, © 2015

Note: Actual official high and low records may vary slightly from our data, if they occured in-between our weather recording intervals... More about our weather records

Advertising

Igloolik weather history for previous 24 hours

 ConditionsComfort  
Time TempWeatherWind HumidityBarometerVisibility
1:03 AM
Thu, Jul 2
36 °FMostly cloudy.12 mph93%29.83 "Hg9 mi
12:00 AM36 °FOvercast.12 mph93%29.83 "Hg9 mi
11:00 PM
Wed, Jul 1
36 °FLight rain. More clouds than sun.9 mph93%29.84 "Hg9 mi
10:00 PM36 °FLight rain. Cloudy.9 mph93%29.85 "Hg9 mi
9:55 PM36 °FLight rain. Cloudy.10 mph93%29.85 "Hg9 mi
9:00 PM36 °FLight rain. Fog.6 mph100%29.86 "Hg5 mi
8:00 PM36 °FLight rain. Mostly cloudy.9 mph93%29.87 "Hg15 mi
7:00 PM36 °FLight rain. Broken clouds.8 mph93%29.88 "Hg15 mi
6:00 PM36 °FBroken clouds.9 mph100%29.88 "Hg15 mi
5:00 PM36 °FDrizzle. Fog.8 mph100%29.88 "Hg4 mi
4:00 PM36 °FDrizzle. Fog.9 mph100%29.88 "Hg3 mi
3:00 PM36 °FLow clouds.13 mph100%29.89 "Hg15 mi
2:00 PM36 °FFog.10 mph93%29.88 "Hg0 mi
1:46 PM36 °FFog.12 mph93%29.88 "Hg0 mi
1:00 PM36 °FBroken clouds.14 mph93%29.88 "Hg15 mi
12:00 PM36 °FBroken clouds.14 mph93%29.87 "Hg15 mi
11:00 AM36 °FMostly cloudy.14 mph93%29.88 "Hg15 mi
10:00 AM36 °FPartly sunny.14 mph100%29.88 "Hg15 mi
9:00 AM36 °FPartly sunny.14 mph93%29.87 "Hg15 mi
8:00 AM34 °FFog.14 mph100%29.86 "Hg1 mi
7:02 AM34 °FFog.9 mph100%29.85 "Hg2 mi
6:03 AM36 °FLight rain. Fog.8 mph93%29.84 "Hg5 mi
5:00 AM34 °FFog.5 mph100%29.84 "Hg0 mi
4:03 AM36 °FLight rain. Cloudy.6 mph93%29.84 "Hg9 mi
3:00 AM36 °FOvercast.3 mph100%29.84 "Hg9 mi
2:00 AM36 °FMostly cloudy.2 mph93%29.85 "Hg9 mi
1:00 AM37 °FMostly cloudy.3 mph93%29.84 "Hg9 mi
Weather by CustomWeather, © 2015

See weather overviewHow to use our weather pages